User: anonymous   Login
Location: Unspecified
(0.0000°N, 0.0000°E)
Time: 19:44:11
(UTC+00:00)
Language:

M3MSAT - Orbit

View from above orbital plane
View from above orbital plane
View from above satellite
View from above satellite

Ground track
Ground track

The orbit data is extracted from the following two-line orbital elements,

1 41605U 16040G   17268.74405995 +.00000891 +00000-0 +44129-4 0  9996
2 41605 097.4518 329.9244 0014146 087.0497 273.2357 15.20266357069951
Epoch (UTC): 25 September 2017 17:51:26
Eccentricity: 0.0014146
inclination: 97.4518°
perigee height: 495 km
apogee height: 515 km
right ascension of ascending node: 329.9244°
argument of perigee: 87.0497°
revolutions per day: 15.20266357
mean anomaly at epoch: 273.2357°
orbit number at epoch: 6995

The dashed part of the orbit path shows where the satellite is in the earth's shadow,  

DLR